Location: Mahannah Oil Field
(37.4664°N, 96.6003°W)
Time: 02:30:51
(UTC+00:00)

Vanguard 2 - Pass Details

Date: 20 June 2021
Orbit: 552 x 2937 km, 32.9° (Epoch: 28 July)

Event Time Altitude Azimuth Distance (km) Brightness Sun altitude
Rises 03:55:53 0° 275° (W) 4,862 12.2 -19.4°
Reaches altitude 10° 03:59:53 10° 270° (W) 3,462 11.3 -19.8°
Maximum altitude 04:07:25 42° 202° (SSW) 1,322 8.4 -20.7°
Enters shadow 04:08:43 37° 171° (S) 1,342 8.3 -20.8°
